Location: Keppel Henge
(44.7900°N, 80.9447°W)
Time: 23:33:14

Vanguard 2 - Visible Passes

Search period start: 22 March 2018 00:00
Search period end: 01 April 2018 00:00
Orbit: 553 x 2939 km, 32.9° (Epoch: 22 March)

Date Brightness Start Highest point End Pass type
(mag) Time Alt. Az. Time Alt. Az. Time Alt. Az.
24 Mar 11.0 06:50:37 10° SSE 06:53:17 12° SE 06:56:18 10° ESE visible
29 Mar 10.3 06:10:27 10° SSE 06:13:21 13° SE 06:16:48 10° ESE visible
30 Mar 10.0 06:26:48 10° S 06:30:47 18° SE 06:35:59 10° ESE visible
